Hourly Weather Rubtsovsk

Today, 16 April, Friday

Time Temperature Precipitation Wind Pressure Humidity
00:00 +9°C° 0 mm 2 mps 746 mmHg 79%
01:00 +8°C° 0 mm 2 mps 746 mmHg 78%
02:00 +8°C° 0 mm 2 mps 745 mmHg 77%
03:00 +8°C° 0 mm 2 mps 745 mmHg 78%
04:00 +8°C° 0 mm 2 mps 745 mmHg 78%
05:00 +8°C° 0 mm 2 mps 745 mmHg 79%
06:00 +9°C° 0 mm 2 mps 745 mmHg 73%
07:00 +11°C° 0 mm 3 mps 745 mmHg 67%
08:00 +12°C° 0 mm 3 mps 745 mmHg 62%
09:00 +14°C° 0 mm 3 mps 745 mmHg 56%
10:00 +16°C° 0 mm 3 mps 744 mmHg 50%
11:00 +18°C° 0 mm 4 mps 744 mmHg 44%
12:00 +18°C° 0 mm 4 mps 744 mmHg 41%
13:00 +19°C° 0 mm 4 mps 743 mmHg 39%
14:00 +19°C° 0 mm 3 mps 743 mmHg 36%
15:00 +19°C° 0 mm 3 mps 743 mmHg 37%
16:00 +19°C° 0 mm 3 mps 742 mmHg 38%
17:00 +19°C° 0 mm 3 mps 742 mmHg 40%
18:00 +17°C° 0 mm 3 mps 742 mmHg 46%
19:00 +15°C° 0 mm 4 mps 742 mmHg 52%
20:00 +13°C° 0 mm 4 mps 742 mmHg 58%
21:00 +13°C° 0 mm 4 mps 742 mmHg 59%
22:00 +12°C° 0 mm 4 mps 741 mmHg 60%
23:00 +12°C° 0 mm 4 mps 741 mmHg 62%

Tomorrow, 17 April, Saturday

Time Temperature Precipitation Wind Pressure Humidity
00:00 +11°C° 0 mm 3 mps 741 mmHg 64%
01:00 +11°C° 0 mm 3 mps 741 mmHg 67%
02:00 +12°C° 0 mm 2 mps 741 mmHg 69%
03:00 +10°C° 0 mm 3 mps 741 mmHg 76%
04:00 +9°C° 0 mm 3 mps 742 mmHg 82%
05:00 +7°C° 0 mm 4 mps 742 mmHg 89%
06:00 +6°C° 0 mm 5 mps 743 mmHg 88%
07:00 +6°C° 0 mm 5 mps 743 mmHg 88%
08:00 +4°C° 0 mm 6 mps 744 mmHg 87%
09:00 +5°C° 0 mm 5 mps 744 mmHg 83%
10:00 +5°C° 0 mm 5 mps 744 mmHg 79%
11:00 +5°C° 0 mm 4 mps 744 mmHg 76%
12:00 +6°C° 0 mm 4 mps 745 mmHg 73%
13:00 +6°C° 0 mm 4 mps 745 mmHg 70%
14:00 +6°C° 0 mm 4 mps 745 mmHg 67%
15:00 +6°C° 0 mm 4 mps 745 mmHg 66%
16:00 +7°C° 0 mm 3 mps 745 mmHg 65%
17:00 +7°C° 0 mm 3 mps 745 mmHg 64%
18:00 +5°C° 0 mm 3 mps 745 mmHg 69%
19:00 +5°C° 0 mm 2 mps 746 mmHg 74%
20:00 +4°C° 0 mm 2 mps 746 mmHg 78%
21:00 +3°C° 0 mm 2 mps 746 mmHg 80%
22:00 +4°C° 0 mm 1 mps 746 mmHg 81%
23:00 +3°C° 0 mm 1 mps 745 mmHg 82%

Day after tomorrow, 18 April, Sunday

Time Temperature Precipitation Wind Pressure Humidity
00:00 +3°C° 0 mm 1 mps 745 mmHg 82%
01:00 +3°C° 0 mm 1 mps 745 mmHg 83%
02:00 +2°C° 0 mm 2 mps 745 mmHg 83%
03:00 +1°C° 0 mm 2 mps 745 mmHg 84%
04:00 +1°C° 0 mm 2 mps 745 mmHg 85%
05:00 +1°C° 0 mm 2 mps 745 mmHg 86%
06:00 +2°C° 0 mm 3 mps 744 mmHg 78%
07:00 +4°C° 0 mm 4 mps 744 mmHg 70%
08:00 +6°C° 0 mm 4 mps 744 mmHg 62%
09:00 +7°C° 0 mm 5 mps 743 mmHg 57%
10:00 +8°C° 0 mm 5 mps 743 mmHg 52%
11:00 +10°C° 0 mm 6 mps 742 mmHg 47%
12:00 +11°C° 0 mm 6 mps 742 mmHg 45%
13:00 +13°C° 0 mm 6 mps 741 mmHg 42%
14:00 +14°C° 0 mm 7 mps 740 mmHg 40%
15:00 +14°C° 0 mm 6 mps 740 mmHg 42%
16:00 +14°C° 0 mm 5 mps 739 mmHg 43%
17:00 +14°C° 0 mm 4 mps 738 mmHg 45%
18:00 +12°C° 0 mm 4 mps 738 mmHg 49%
19:00 +11°C° 0 mm 4 mps 738 mmHg 54%
20:00 +10°C° 0 mm 3 mps 738 mmHg 59%
21:00 +9°C° 0 mm 3 mps 738 mmHg 65%
22:00 +7°C° 0 mm 4 mps 738 mmHg 72%
23:00 +6°C° 0 mm 4 mps 738 mmHg 79%

19 April, Monday

Time Temperature Precipitation Wind Pressure Humidity
00:00 +6°C° 0.1 mm 4 mps 738 mmHg 79%
01:00 +6°C° 0.1 mm 4 mps 739 mmHg 79%
02:00 +5°C° 0.1 mm 4 mps 739 mmHg 79%
03:00 +3°C° 0 mm 5 mps 740 mmHg 80%
04:00 +1°C° 0 mm 6 mps 741 mmHg 80%
05:00 -2°C° 0 mm 6 mps 742 mmHg 81%
06:00 -2°C° 0 mm 6 mps 744 mmHg 74%
07:00 -3°C° 0 mm 6 mps 745 mmHg 68%
08:00 -2°C° 0 mm 5 mps 746 mmHg 61%
09:00 -1°C° 0 mm 5 mps 747 mmHg 56%
10:00 -1°C° 0 mm 5 mps 747 mmHg 50%
11:00 0°C° 0 mm 5 mps 747 mmHg 45%
12:00 0°C° 0 mm 5 mps 747 mmHg 42%
13:00 +1°C° 0 mm 5 mps 748 mmHg 40%
14:00 +1°C° 0 mm 4 mps 748 mmHg 37%
15:00 +1°C° 0 mm 5 mps 748 mmHg 35%
16:00 0°C° 0 mm 5 mps 748 mmHg 33%
17:00 -1°C° 0 mm 6 mps 748 mmHg 31%
18:00 -1°C° 0 mm 5 mps 749 mmHg 35%
19:00 -2°C° 0 mm 5 mps 749 mmHg 39%
20:00 -4°C° 0 mm 5 mps 750 mmHg 42%
21:00 -4°C° 0 mm 5 mps 750 mmHg 44%
22:00 -5°C° 0 mm 5 mps 750 mmHg 46%
23:00 -5°C° 0 mm 5 mps 750 mmHg 48%

20 April, Tuesday

Time Temperature Precipitation Wind Pressure Humidity
00:00 -6°C° 0 mm 5 mps 750 mmHg 48%
01:00 -5°C° 0 mm 4 mps 750 mmHg 49%
02:00 -7°C° 0 mm 4 mps 751 mmHg 50%
03:00 -7°C° 0 mm 4 mps 751 mmHg 50%
04:00 -7°C° 0 mm 4 mps 751 mmHg 50%
05:00 -7°C° 0 mm 4 mps 751 mmHg 50%
06:00 -7°C° 0 mm 5 mps 751 mmHg 45%
07:00 -6°C° 0 mm 5 mps 751 mmHg 41%
08:00 -5°C° 0 mm 5 mps 752 mmHg 36%
09:00 -5°C° 0 mm 5 mps 751 mmHg 34%
10:00 -4°C° 0 mm 5 mps 751 mmHg 31%
11:00 -2°C° 0 mm 5 mps 751 mmHg 29%
12:00 -3°C° 0 mm 6 mps 751 mmHg 29%
13:00 -2°C° 0 mm 6 mps 751 mmHg 29%
14:00 -2°C° 0 mm 6 mps 750 mmHg 29%
15:00 -2°C° 0 mm 6 mps 750 mmHg 30%
16:00 -2°C° 0 mm 6 mps 750 mmHg 31%
17:00 -2°C° 0 mm 6 mps 750 mmHg 32%
18:00 -2°C° 0 mm 5 mps 751 mmHg 37%
19:00 -3°C° 0 mm 4 mps 751 mmHg 42%
20:00 -4°C° 0 mm 3 mps 751 mmHg 48%
21:00 -4°C° 0 mm 3 mps 751 mmHg 49%
22:00 -5°C° 0 mm 3 mps 751 mmHg 50%
23:00 -4°C° 0 mm 2 mps 751 mmHg 51%

21 April, Wednesday

Time Temperature Precipitation Wind Pressure Humidity
00:00 -4°C° 0 mm 2 mps 751 mmHg 51%
01:00 -4°C° 0 mm 2 mps 751 mmHg 50%
02:00 -4°C° 0 mm 2 mps 750 mmHg 50%
03:00 -4°C° 0 mm 2 mps 750 mmHg 49%
04:00 -4°C° 0 mm 2 mps 750 mmHg 48%
05:00 -4°C° 0 mm 2 mps 750 mmHg 47%
06:00 -4°C° 0 mm 3 mps 750 mmHg 43%
07:00 -2°C° 0 mm 4 mps 750 mmHg 39%
08:00 0°C° 0 mm 5 mps 750 mmHg 35%
09:00 +1°C° 0 mm 6 mps 749 mmHg 36%
10:00 +2°C° 0 mm 7 mps 748 mmHg 38%
11:00 +3°C° 0 mm 7 mps 748 mmHg 39%
12:00 +3°C° 0 mm 7 mps 747 mmHg 41%
13:00 +4°C° 0 mm 8 mps 747 mmHg 44%
14:00 +4°C° 0 mm 8 mps 747 mmHg 47%
15:00 +3°C° 0.2 mm 7 mps 747 mmHg 62%
16:00 +2°C° 0.2 mm 6 mps 747 mmHg 77%
17:00 +1°C° 0.2 mm 5 mps 747 mmHg 93%
18:00 0°C° 0.1 mm 4 mps 747 mmHg 91%
19:00 +1°C° 0.1 mm 3 mps 748 mmHg 89%
20:00 +1°C° 0.1 mm 2 mps 748 mmHg 87%
21:00 -1°C° 0 mm 2 mps 749 mmHg 87%
22:00 -1°C° 0 mm 2 mps 749 mmHg 87%
23:00 -1°C° 0 mm 2 mps 749 mmHg 88%
Show more